Skip Page Navigation
NASA JPL Caltech
NASA Logo - Jet Propulsion Laboratory + View the NASA Portal
+ Near-Earth Object (NEO) Program
Search JPL
JPL Home Earth Solar System Stars & Galaxies Technology
JPL Solar System Dynamics
BODIES ORBITS EPHEMERIDES TOOLS PHYSICAL DATA DISCOVERY FAQ SITE MAP
JPL Small-Body Database Browser
Search: [ help ]  
227767 Enkibilal (2006 US62)
Classification: Main-belt Asteroid          SPK-ID: 2227767
Ephemeris | Orbit Diagram | Orbital Elements | Physical Parameters | Discovery Circumstances ]

[ show orbit diagram ]
Orbital Elements at Epoch 2457000.5 (2014-Dec-09.0) TDB
Reference: JPL 5 (heliocentric ecliptic J2000)
 Element Value Uncertainty (1-sigma)   Units 
e .07785823420766987 2.3252e-07  
a 2.191068202307821 6.3709e-08 AU
q 2.02047550104756 4.78e-07 AU
i 1.292735852026873 1.7262e-05 deg
node 226.0074864289017 0.00058264 deg
peri 142.5932650233804 0.00058819 deg
M 215.5923716932233 0.00011943 deg
tp 2457475.692859221644
(2016-Mar-28.19285922)
0.00040703 JED
period 1184.628757674598
3.24
5.1667e-05
1.415e-07
d
yr
n .3038926732680985 1.3254e-08 deg/d
Q 2.361660903568081 6.8669e-08 AU
  Orbit Determination Parameters
   # obs. used (total)      63  
   data-arc span      3213 days (8.80 yr)  
   first obs. used      2005-05-13  
   last obs. used      2014-02-28  
   planetary ephem.      DE431  
   SB-pert. ephem.      SB431-BIG16  
   condition code      0  
   fit RMS      .54772  
   data source      ORB  
   producer      Otto Matic  
   solution date      2014-Jun-11 23:31:00  

Additional Information
 Earth MOID = 1.01943 AU 
 T_jup = 3.668 
[ show covariance matrix ]

Ephemeris | Orbit Diagram | Orbital Elements | Physical Parameters | Discovery Circumstances ]

Physical Parameter Table
Parameter Symbol Value Units Sigma Reference Notes
absolute magnitude H 18.2 mag n/a MPO287931  

227767 Enkibilal           Discovered 2006 Oct. 20 by J.-C. Merlin at Nogales.
Born in Belgrade, the graphic novelist and film director Enki Bilal (b. 1951) moved with his family to Paris in 1960. He published his first story in Pilote magazine in 1972 and his first album in 1975. He received the Grand Prix at the 14th Angoulême festival in 1987.
NOTE: some special characters may not display properly (any characters within {} are an attempt to place the proper accent above a character)
Reference: 20100527/MPCPages.arcLast Updated: 2010-12-06

Alternate Designations
 2006 US62 = 2008 HH56 
Ephemeris | Orbit Diagram | Orbital Elements | Physical Parameters | Discovery Circumstances ]
ABOUT SSD CREDITS/AWARDS PRIVACY/COPYRIGHT GLOSSARY LINKS
FirstGov 2014-Oct-30 14:30 UT
(server date/time)  
NASA Home Page
Site Manager:   Donald K. Yeomans
Webmaster  Alan B. Chamberlin